This is the latest recevied weather packets stored in our database for station/object KB7KFC-3. If no packets are shown the sender has not sent any weather packets the latest 10 day(s).
| Time | Temp. | Humidity | Pressure | Rain* | Wind** | Luminosity | Snow |
|---|---|---|---|---|---|---|---|
| 1777414106 | 28.89° C | 14% | 1014.9 hPa | 0 mm | - | - | - |
| 1777413926 | 28.89° C | 13% | 1015.1 hPa | 0 mm | - | - | - |
| 1777413748 | 28.33° C | 15% | 1015.1 hPa | 0 mm | - | - | - |
| 1777413567 | 28.33° C | 14% | 1015.1 hPa | 0 mm | - | - | - |
| 1777413387 | 28.33° C | 19% | 1015.1 hPa | 0 mm | - | - | - |
| 1777413207 | 27.78° C | 13% | 1015.2 hPa | 0 mm | - | - | - |
| 1777413026 | 28.33° C | 15% | 1015.2 hPa | 0 mm | - | - | - |
| 1777412847 | 28.89° C | 15% | 1015.3 hPa | 0 mm | - | - | - |
| 1777412667 | 28.89° C | 14% | 1015.3 hPa | 0 mm | - | - | - |
| 1777412487 | 29.44° C | 15% | 1015.4 hPa | 0 mm | - | - | - |
| 1777412307 | 28.89° C | 19% | 1015.4 hPa | 0 mm | - | - | - |
| 1777412128 | 28.33° C | 14% | 1015.5 hPa | 0 mm | - | - | - |
| 1777411949 | 28.89° C | 15% | 1015.5 hPa | 0 mm | - | - | - |
| 1777411770 | 28.89° C | 15% | 1015.5 hPa | 0 mm | - | - | - |
| 1777411589 | 28.33° C | 14% | 1015.5 hPa | 0 mm | - | - | - |
| 1777411408 | 28.33° C | 15% | 1015.5 hPa | 0 mm | - | - | - |
| 1777411229 | 28.33° C | 14% | 1015.5 hPa | 0 mm | - | - | - |
| 1777411048 | 28.89° C | 15% | 1015.6 hPa | 0 mm | - | - | - |
| 1777410869 | 28.89° C | 15% | 1015.7 hPa | 0 mm | - | - | - |
| 1777410689 | 28.89° C | 13% | 1015.5 hPa | 0 mm | - | - | - |
| 1777410509 | 28.33° C | 14% | 1015.7 hPa | 0 mm | - | - | - |
| 1777410328 | 28.33° C | 13% | 1015.7 hPa | 0 mm | - | - | - |
| 1777410149 | 28.33° C | 15% | 1015.7 hPa | 0 mm | - | - | - |
| 1777409969 | 27.78° C | 14% | 1015.8 hPa | 0 mm | - | - | - |
| 1777409790 | 28.33° C | 14% | 1015.8 hPa | 0 mm | - | - | - |
* Rain latest hour (hover to see other rain measurements)
** Current wind speed in m/s (hover to see current wind gust speed)